This demonstration page uses our WeatherBlox Daily Observations layout. Learn more.

Left ArrowRight Arrow

Hourly Observations for April 4, 2020

Temp ( °F °C ) Dew Point ( °F °C ) Humidity (%) Winds ( mph kmh ) Pressure ( in mb ) Visibility ( mi km ) Precip ( " mm )
12:53 am 00:53 Clear 46 7.8 33 0.6 61 61 Calm 29.87 1012 10 16 0.00 0.00
1:53 am 01:53 Clear 44 6.7 33 0.6 65 65 Calm 29.87 1012 10 16 0.00 0.00
2:53 am 02:53 Mostly Clear 42 5.6 35 1.7 76 76 Calm 29.85 1011 10 16 0.00 0.00
3:53 am 03:53 Partly Cloudy 43 6.1 35 1.7 74 74 Calm 29.84 1011 10 16 0.00 0.00
4:53 am 04:53 Cloudy 43 6.1 34 1.1 71 71 Calm 29.83 1010 10 16 0.00 0.00
5:53 am 05:53 Cloudy 45 7.2 36 2.2 71 71 Calm 29.82 1010 10 16 0.00 0.00
6:53 am 06:53 Cloudy 46 7.8 38 3.3 73 73 Calm 29.83 1010 10 16 0.00 0.00
7:53 am 07:53 Cloudy with Light Rain 43 6.1 39 3.9 86 86 E 6 9 29.84 1010 10 16 0.01 0.25
8:32 am 08:32 Cloudy with Light Rain 45 7.2 39 3.9 80 80 SSE 8 13 29.85 1011 8 13 0.02 0.51
8:53 am 08:53 Cloudy with Light Rain 46 7.8 41 5 83 83 SSE 8 13 29.83 1010 9 14 0.02 0.51
9:53 am 09:53 Cloudy with Light Rain 44 6.7 39 3.9 83 83 Calm 29.82 1010 8 13 0.04 1.02
10:53 am 10:53 Cloudy with Light Rain 45 7.2 40 4.4 83 83 Calm 29.82 1010 7 11 0.05 1.27
11:17 am 11:17 Cloudy with Light Rain 45 7.2 41 5 86 86 Calm 29.83 1010 4 6 0.03 0.76
11:45 am 11:45 Cloudy with Rain 46 7.8 43 6.1 89 89 SSW 5 7 29.83 1010 3 5 0.07 1.78
11:53 am 11:53 Cloudy with Light Rain 46 7.8 43 6.1 89 89 VRB 5 7 29.81 1010 6 10 0.08 2.03
12:03 pm 12:03 Cloudy with Light Rain 47 8.3 43 6.1 86 86 SSW 10 17 29.83 1010 8 13 0.01 0.25
12:53 pm 12:53 Cloudy with Light Rain 47 8.3 42 5.6 83 83 S 18 30 29.79 1009 9 14 0.07 1.78
1:39 pm 13:39 Cloudy with Light Rain 47 8.3 44 6.7 90 90 SSW 13 20 29.79 1009 4 6 0.03 0.76
1:53 pm 13:53 Cloudy with Light Rain 47 8.3 44 6.7 90 90 SSW 12 19 29.78 1008 3 5 0.04 1.02
2:00 pm 14:00 Cloudy with Light Rain 47 8.3 44 6.7 90 90 SSW 12 19 29.79 1009 3 5 0.00 0.00
2:53 pm 14:53 Cloudy with Light Rain 47 8.3 44 6.7 90 90 SSW 9 15 29.76 1008 4 6 0.02 0.51
3:53 pm 15:53 Cloudy with Light Rain 48 8.9 45 7.2 89 89 SSW 5 7 29.73 1007 3 5 0.05 1.27
4:37 pm 16:37 Cloudy with Light Rain 45 7.2 43 6.1 93 93 NNE 8 13 29.72 1007 7 11 0.01 0.25
4:53 pm 16:53 Cloudy 45 7.2 43 6.1 93 93 NNE 9 15 29.71 1006 10 16 0.01 0.25
5:53 pm 17:53 Cloudy with Light Rain 46 7.8 43 6.1 89 89 NNE 8 13 29.69 1005 9 14 0.00 0.00
6:11 pm 18:11 Cloudy with Heavy Rain 45 7.2 43 6.1 93 93 NNE 8 13 29.69 1006 2 3 0.08 2.03
6:24 pm 18:24 Cloudy with Heavy Rain 45 7.2 43 6.1 93 93 ENE 5 7 29.69 1006 2 3 0.19 4.83
6:53 pm 18:53 Cloudy with Light Rain 45 7.2 43 6.1 93 93 NE 8 13 29.67 1005 2 3 0.24 6.10
6:55 pm 18:55 Cloudy with Light Rain 45 7.2 43 6.1 93 93 NNE 9 15 29.68 1005 6 10 0.00 0.00
7:28 pm 19:28 Cloudy with Heavy Rain 45 7.2 43 6.1 93 93 N 8 13 29.67 1005 2 3 0.12 3.05
7:33 pm 19:33 Cloudy with Light Rain 45 7.2 43 6.1 93 93 N 6 9 29.67 1005 3 5 0.14 3.56
7:53 pm 19:53 Cloudy with Light Rain 45 7.2 43 6.1 93 93 NNE 5 7 29.66 1005 10 16 0.15 3.81
8:53 pm 20:53 Cloudy 46 7.8 43 6.1 89 89 N 5 7 29.66 1005 10 16 0.04 1.02
9:18 pm 21:18 Cloudy with Nearby Thunderstorms 46 7.8 43 6.1 89 89 NNE 5 7 29.68 1005 10 16 0.00 0.00
9:37 pm 21:37 Cloudy with Thunderstorms 46 7.8 43 6.1 89 89 Calm 29.68 1005 10 16 0.00 0.00
9:51 pm 21:51 Cloudy with Heavy Rain 46 8 45 7 93 93 NNW 3 6 29.68 1005 4 6 0.01 0.25
9:52 pm 21:52 Cloudy with Heavy Rain 46 7.8 44 6.7 93 93 NNW 3 6 29.67 1005 3 5 0.02 0.51
9:57 pm 21:57 Cloudy with Thunderstorms 46 7.8 44 6.7 93 93 N 3 6 29.67 1005 3 4 0.03 0.76
10:11 pm 22:11 Cloudy with Strong Thunderstorms 46 7.8 44 6.7 93 93 ENE 3 6 29.67 1005 2 3 0.20 5.08
10:13 pm 22:13 Cloudy with Rain 46 7.8 44 6.7 93 93 NE 3 6 29.67 1005 2 3 0.21 5.33
10:19 pm 22:19 Cloudy with Light Rain 46 7.8 44 6.7 93 93 W 6 9 29.66 1004 5 8 0.23 5.84
10:53 pm 22:53 Cloudy 50 10 46 7.8 86 86 S 18 30 29.65 1004 10 16 0.23 5.84
11:53 pm 23:53 Cloudy 51 10.6 47 8.3 86 86 S 17 28 29.63 1004 10 16 0.00 0.00

Powered by AerisWeather